Terminal Aerodrome Forecast
Issued by NWS Charleston, WV

Current Version | Previous Version | Graphics & Text | Print | Product List | Glossary On
Versions: 1 2 3 4 5 6 7 8 9 10 11 12 13 14 15 16 17 18 19 20 21
000
FTUS41 KRLX 220200 AAA
TAFCRW
TAF AMD
KCRW 220221Z 2202/2224 00000KT P6SM SKC
     FM221500 19005KT P6SM SCT040
     FM221700 19005KT P6SM BKN050
     FM222000 19006KT P6SM SCT070=

USA.gov is the U.S. government's official web portal to all federal, state and local government web resources and services.